Jamestown, NY

10:35 PM EST on December 08, 2019 (GMT -0500)
Chautauqua County-Jamestown

Weather History for KJHW - October, 2019

Change the Weather History Date:

Sunday, October 13, 2019

  Actual Average Record
Temperature  
Mean Temperature 48 °F -  
Max Temperature 62 °F 59 °F 78 °F (1961)
Min Temperature 34 °F 36 °F 23 °F (1987)
Degree Days  
Heating Degree Days 17    
Moisture  
Dew Point 32 °F    
Average Humidity 60    
Maximum Humidity 89    
Minimum Humidity 25    
Precipitation  
Precipitation 0.00 in - - ()
Sea Level Pressure  
Sea Level Pressure 30.01 in    
Wind  
Wind Speed 9 mph (South)    
Max Wind Speed 17 mph    
Max Gust Speed 26 mph    
Visibility 9 miles    
Events      
Averages and records for this station are not official NWS values.
T = Trace of Precipitation, MM = Missing Value Source: NWS Daily Summary

Daily Weather History Graph

Daily Weather History Graph

Search for Another Location

Airport or City:

Astronomy

Oct. 13, 2019 Rise Set
Actual Time 7:27 AM EDT 6:38 PM EDT
Civil Twilight 6:58 AM EDT 7:06 PM EDT
Nautical Twilight 6:26 AM EDT 7:39 PM EDT
Astronomical Twilight 5:54 AM EDT 8:11 PM EDT
Moon 7:01 PM EDT (10/13) 6:58 AM EDT (10/13)
Length of Visible Light 12h 07m
Length of Day
11h 11m
Full, 100% of the Moon is Illuminated
Oct 13
Full
Oct 13
Full
Oct 21
Last Quarter
Oct 27
New
Nov 4
First Quarter

Hourly Weather History & Observations

Time (EDT) Temp. Windchill Dew Point Humidity Pressure Visibility Wind Dir Wind Speed Gust Speed Precip Events Conditions
12:56 AM 36.0 °F 31.1 °F 32.0 °F 86% 30.09 in 10.0 mi SSW 5.8 mph - N/A   Clear
1:56 AM 36.0 °F 31.1 °F 32.0 °F 86% 30.09 in 10.0 mi South 5.8 mph - N/A   Clear
2:56 AM 35.1 °F 31.0 °F 32.0 °F 89% 30.09 in 10.0 mi South 4.6 mph - N/A   Clear
3:56 AM 34.0 °F 28.8 °F 30.9 °F 89% 30.09 in 10.0 mi South 5.8 mph - N/A   Clear
4:56 AM 34.0 °F 27.2 °F 30.9 °F 89% 30.09 in 10.0 mi South 8.1 mph - N/A   Clear
5:56 AM 35.1 °F 28.6 °F 30.0 °F 82% 30.09 in 10.0 mi South 8.1 mph - N/A   Clear
6:56 AM 36.0 °F 29.0 °F 30.9 °F 82% 30.10 in 10.0 mi SSW 9.2 mph - N/A   Clear
7:56 AM 34.0 °F 28.8 °F 30.9 °F 89% 30.10 in 10.0 mi South 5.8 mph - N/A   Clear
8:56 AM 37.9 °F 33.5 °F 33.1 °F 83% 30.09 in 10.0 mi South 5.8 mph - N/A   Clear
9:56 AM 44.1 °F 38.6 °F 36.0 °F 73% 30.08 in 10.0 mi South 10.4 mph - N/A   Clear
10:05 AM 44.6 °F 38.8 °F 35.6 °F 71% 30.03 in 2.5 mi SSW 11.5 mph 17.3 mph N/A   Haze
10:17 AM 44.6 °F 38.4 °F 35.6 °F 71% 30.03 in 7.0 mi South 12.7 mph - N/A   Partly Cloudy
10:56 AM 48.9 °F - 35.1 °F 59% 30.06 in 10.0 mi SSW 13.8 mph - N/A   Scattered Clouds
11:23 AM 50.0 °F - 35.6 °F 58% 30.01 in 1.8 mi South 11.5 mph - N/A   Haze
11:33 AM 51.8 °F - 35.6 °F 54% 30.01 in 10.0 mi South 13.8 mph 18.4 mph N/A   Clear
11:56 AM 52.0 °F - 33.1 °F 49% 30.04 in 10.0 mi South 12.7 mph 19.6 mph N/A   Clear
12:56 PM 55.9 °F - 33.1 °F 42% 30.01 in 10.0 mi South 12.7 mph 18.4 mph N/A   Clear
1:56 PM 59.0 °F - 32.0 °F 36% 29.97 in 10.0 mi South 15.0 mph 19.6 mph N/A   Clear
2:56 PM 61.0 °F - 27.0 °F 27% 29.94 in 10.0 mi South 17.3 mph 25.3 mph N/A   Clear
3:56 PM 62.1 °F - 26.1 °F 25% 29.92 in 10.0 mi SSW 15.0 mph 26.5 mph N/A   Clear
4:56 PM 60.1 °F - 27.0 °F 28% 29.91 in 10.0 mi SSW 15.0 mph 24.2 mph N/A   Clear
5:56 PM 59.0 °F - 30.0 °F 33% 29.91 in 10.0 mi South 12.7 mph 17.3 mph N/A   Clear
6:56 PM 54.0 °F - 30.9 °F 41% 29.92 in 10.0 mi South 6.9 mph - N/A   Clear
7:56 PM 52.0 °F - 30.9 °F 45% 29.93 in 10.0 mi South 9.2 mph - N/A   Clear
8:56 PM 52.0 °F - 30.9 °F 45% 29.94 in 10.0 mi SSW 6.9 mph - N/A   Clear
9:56 PM 51.1 °F - 32.0 °F 48% 29.93 in 10.0 mi SSW 6.9 mph - N/A   Clear
10:56 PM 48.9 °F - 32.0 °F 52% 29.93 in 10.0 mi South 8.1 mph - N/A   Clear
11:56 PM 48.0 °F - 34.0 °F 58% 29.92 in 10.0 mi South 6.9 mph - N/A   Clear